KA5C Weather Reports


Display with metric or nautical units.
time (UTC)temp
F
wind
direction
speed
MPH
gust
MPH
rain 1hr
in
rain 24hr
in
rain mn
in
humidity
%
barometer
mb
20260510022120 80 88 2.0 3.0 0.00 0.04 0.04 100 1052.7
20260510021219 81 122 2.0 3.0 0.00 0.04 0.04 100 1052.7
20260510020222 81 138 2.0 4.0 0.00 0.04 0.04 100 1052.5
20260510015220 82 115 1.0 4.0 0.00 0.04 0.04 100 1052.5
20260510014319 82 86 1.0 3.0 0.00 0.04 0.04 100 1052.3
20260510013322 83 139 6.0 8.0 0.00 0.04 0.04 100 1052.2
20260510012322 83 138 4.0 6.0 0.00 0.04 0.04 100 1052.0
20260510011320 83 138 5.0 7.0 0.00 0.04 0.04 100 1052.1
20260510005320 84 136 8.0 10.0 0.00 0.04 0.04 100 1052.1
20260510003421 85 137 4.0 6.0 0.00 0.04 0.04 100 1051.9
20260510002419 85 129 3.0 8.0 0.00 0.04 0.04 100 1051.9
20260510001420 85 138 3.0 8.0 0.00 0.04 0.04 100 1051.7
20260510000420 86 144 4.0 8.0 0.00 0.04 0.04 100 1051.6
20260509235519 85 139 5.0 7.0 0.00 0.04 0.04 100 1051.6
20260509233520 86 136 6.0 7.0 0.00 0.04 0.04 100 1051.3
20260509232519 86 131 2.0 5.0 0.00 0.04 0.04 100 1051.4
20260509231519 86 141 4.0 5.0 0.00 0.04 0.04 100 1051.3
20260509230521 86 137 6.0 8.0 0.00 0.04 0.04 100 1051.3
20260509225520 86 145 3.0 5.0 0.00 0.04 0.04 100 1051.4
20260509224520 85 141 5.0 8.0 0.00 0.04 0.04 100 1051.4
20260509223521 85 103 2.0 4.0 0.00 0.04 0.04 100 1051.4
20260509222619 86 136 6.0 7.0 0.00 0.04 0.04 100 1051.3
20260509221619 86 144 3.0 5.0 0.00 0.04 0.04 100 1051.3
20260509220619 86 140 4.0 5.0 0.00 0.04 0.04 100 1051.1
20260509215619 85 135 4.0 5.0 0.00 0.04 0.04 100 1051.3
20260509214619 85 136 3.0 4.0 0.00 0.04 0.04 100 1051.4
20260509213620 84 197 0.0 4.0 0.00 0.04 0.04 100 1051.8
20260509212719 83 30 0.0 2.0 0.00 0.04 0.04 100 1051.9
20260509211720 84 107 2.0 5.0 0.00 0.04 0.04 100 1052.1
20260509210721 82 129 0.0 2.0 0.00 0.04 0.04 100 1051.9
20260509205720 81 3 1.0 4.0 0.03 0.04 0.04 100 1052.0
20260509203820 80 246 2.0 5.0 0.04 0.04 0.04 100 1052.1
20260509202819 79 20 4.0 12.0 0.04 0.04 0.04 100 1051.9
20260509201820 76 91 1.0 5.0 0.04 0.04 0.04 100 1052.4
20260509195820 78 112 22.0 29.0 0.02 0.02 0.01 100 1052.9
20260509194919 85 109 17.0 22.0 0.00 0.00 0.00 100 1052.4
20260509193920 90 140 6.0 9.0 0.00 0.00 0.00 100 1052.6
20260509192918 90 288 4.0 7.0 0.00 0.00 0.00 100 1052.5
20260509191921 90 284 1.0 2.0 0.00 0.00 0.00 100 1052.7
20260509190935 89 57 2.0 5.0 0.00 0.00 0.00 100 1052.8
20260509190020 88 130 2.0 5.0 0.00 0.00 0.00 100 1052.9
20260509185018 89 292 3.0 5.0 0.00 0.00 0.00 100 1053.0
20260509184018 88 299 2.0 6.0 0.00 0.00 0.00 100 1053.2
20260509183020 88 20 0.0 2.0 0.00 0.00 0.00 100 1053.5
20260509182020 87 248 3.0 8.0 0.00 0.00 0.00 100 1053.5
20260509181020 86 191 2.0 5.0 0.00 0.00 0.00 100 1053.8
20260509175019 86 75 1.0 2.0 0.00 0.00 0.00 100 1053.8
20260509174019 85 240 2.0 4.0 0.00 0.00 0.00 100 1054.1
20260509173020 85 36 0.0 4.0 0.00 0.00 0.00 100 1054.5
20260509172018 84 7 0.0 2.0 0.00 0.00 0.00 100 1054.4
20260509171020 83 188 2.0 3.0 0.00 0.00 0.00 100 1054.2
20260509170018 82 262 6.0 9.0 0.00 0.00 0.00 100 1054.2
20260509165020 81 246 2.0 5.0 0.00 0.00 0.00 100 1054.5
20260509164119 82 256 3.0 5.0 0.00 0.00 0.00 100 1054.5
20260509163119 83 245 3.0 5.0 0.00 0.00 0.00 100 1054.5
20260509162118 83 205 0.0 2.0 0.00 0.00 0.00 100 1054.6
20260509161218 81 103 0.0 2.0 0.00 0.00 0.00 100 1054.3
20260509155219 79 257 3.0 5.0 0.00 0.00 0.00 100 1054.3
20260509152221 76 248 3.0 5.0 0.00 0.00 0.00 100 1054.6
20260509151218 75 248 1.0 5.0 0.00 0.00 0.00 100 1054.5
20260509150218 75 96 2.0 6.0 0.00 0.00 0.00 100 1054.4
20260509142219 74 176 2.0 6.0 0.00 0.00 0.00 100 1054.1
20260509141317 74 89 1.0 3.0 0.00 0.00 0.00 100 1053.6
20260509135418 73 154 1.0 2.0 0.00 0.00 0.00 100 1054.0
20260509134419 73 334 0.0 2.0 0.00 0.00 0.00 100 1054.1
20260509133419 73 12 3.0 4.0 0.00 0.00 0.00 100 1054.5
20260509132518 73 359 1.0 4.0 0.00 0.00 0.00 100 1054.3
20260509131518 74 58 1.0 4.0 0.00 0.00 0.00 100 1054.3
20260509125618 73 93 1.0 6.0 0.00 0.00 0.00 100 1053.8
20260509124618 73 318 0.0 1.0 0.00 0.00 0.00 100 1053.6
20260509123619 73 124 0.0 0.0 0.00 0.00 0.00 100 1053.5
20260509121718 73 135 4.0 5.0 0.00 0.00 0.00 100 1053.7
20260509120718 73 112 0.0 0.0 0.00 0.00 0.00 100 1054.0
20260509115721 73 49 0.0 1.0 0.00 0.00 0.00 100 1054.0
20260509114718 73 73 0.0 3.0 0.00 0.00 0.00 100 1053.8
20260509113719 72 70 3.0 6.0 0.00 0.00 0.00 100 1054.3
20260509111719 72 131 3.0 4.0 0.00 0.00 0.00 100 1054.5
20260509110818 73 24 0.0 1.0 0.00 0.00 0.00 100 1054.5
20260509105818 73 22 1.0 2.0 0.00 0.00 0.00 100 1054.7
20260509103819 73 127 4.0 6.0 0.00 0.00 0.00 100 1054.9
20260509101819 72 96 6.0 8.0 0.00 0.00 0.00 100 1054.6
20260509100817 72 131 3.0 4.0 0.00 0.00 0.00 100 1054.0
20260509095817 72 131 2.0 4.0 0.00 0.00 0.00 100 1053.5
20260509094818 72 112 1.0 2.0 0.00 0.00 0.00 100 1053.6
20260509093818 72 135 2.0 3.0 0.00 0.00 0.00 100 1053.6
20260509090919 72 114 3.0 4.0 0.00 0.00 0.00 100 1053.3
20260509085919 72 135 4.0 4.0 0.00 0.00 0.00 100 1053.2
20260509084918 72 137 4.0 4.0 0.00 0.00 0.00 100 1053.3
20260509083017 72 128 4.0 5.0 0.00 0.00 0.00 100 1053.7
20260509082019 72 112 6.0 7.0 0.00 0.00 0.00 100 1054.0
20260509080119 72 112 6.0 7.0 0.00 0.00 0.00 100 1053.8
20260509075120 72 112 4.0 5.0 0.00 0.00 0.00 100 1053.6
20260509074118 72 141 3.0 4.0 0.00 0.00 0.00 100 1053.7
20260509072118 72 112 2.0 3.0 0.00 0.00 0.00 100 1053.8
20260509071217 72 225 0.0 0.0 0.00 0.00 0.00 100 1054.0
20260509070220 72 213 2.0 3.0 0.00 0.00 0.00 100 1054.0
20260509065219 72 157 0.0 0.0 0.00 0.00 0.00 100 1053.7
20260509064317 72 22 0.0 1.0 0.00 0.00 0.00 100 1053.5
20260509063417 72 112 1.0 2.0 0.00 0.00 0.00 100 1053.6
20260509062419 72 44 1.0 3.0 0.00 0.00 0.00 100 1053.8
20260509061517 72 328 1.0 3.0 0.00 0.00 0.00 100 1053.5
20260509055518 73 79 3.0 6.0 0.00 0.00 0.00 100 1053.3
20260509053517 73 127 3.0 9.0 0.00 0.00 0.00 100 1053.4
20260509052519 74 303 1.0 4.0 0.00 0.00 0.00 100 1053.1
20260509050639 74 152 1.0 4.0 0.00 0.00 0.00 100 1052.9
20260509045644 74 146 1.0 4.0 0.00 0.00 0.00 100 1052.9
20260509044645 74 138 2.0 5.0 0.00 0.00 0.00 100 1052.9
20260509043646 74 73 2.0 6.0 0.00 0.00 0.00 100 1053.0
20260509042744 75 122 0.0 2.0 0.00 0.00 0.00 100 1052.9
20260509041744 75 79 2.0 5.0 0.00 0.00 0.00 100 1053.1
20260509040843 75 53 1.0 4.0 0.00 0.00 0.00 100 1053.2
20260509035843 75 5 2.0 4.0 0.00 0.00 0.00 100 1053.3
20260509034844 75 62 2.0 5.0 0.00 0.00 0.00 100 1053.2
20260509033943 75 127 0.0 2.0 0.00 0.00 0.00 100 1053.1
20260509032943 75 5 0.0 3.0 0.00 0.00 0.00 100 1053.2
20260509031943 75 53 0.0 2.0 0.00 0.00 0.00 100 1053.2
20260509030945 75 236 2.0 7.0 0.00 0.00 0.00 100 1053.0
20260509025944 75 93 1.0 3.0 0.00 0.00 0.00 100 1052.8
20260509023946 75 108 1.0 8.0 0.00 0.00 0.00 100 1052.6
20260509022944 75 137 5.0 7.0 0.00 0.00 0.00 100 1052.6